This is the latest recevied weather packets stored in our database for station/object KJ4UBX-11. If no packets are shown the sender has not sent any weather packets the latest 10 day(s).
| Time | Temp. | Humidity | Pressure | Rain* | Wind** | Luminosity | Snow |
|---|---|---|---|---|---|---|---|
| 1777967944 | 13.33° C | 68% | 1007.2 hPa | - | - | - | - |
| 1777967361 | 13.89° C | 69% | 1007.4 hPa | - | - | - | - |
| 1777966778 | 13.89° C | 66% | 1007.4 hPa | - | - | - | - |
| 1777966196 | 13.89° C | 65% | 1007.3 hPa | - | - | - | - |
| 1777965613 | 14.44° C | 64% | 1007.2 hPa | - | - | - | - |
| 1777965030 | 14.44° C | 62% | 1007.1 hPa | - | - | - | - |
| 1777964448 | 15° C | 61% | 1007.1 hPa | - | - | - | - |
| 1777963865 | 15° C | 60% | 1007.1 hPa | - | - | - | - |
| 1777963284 | 15.56° C | 57% | 1007 hPa | - | - | - | - |
| 1777962700 | 16.11° C | 55% | 1007 hPa | - | - | - | - |
| 1777962118 | 16.67° C | 53% | 1006.9 hPa | - | - | - | - |
| 1777961534 | 17.22° C | 51% | 1007 hPa | - | - | - | - |
| 1777960952 | 17.22° C | 50% | 1006.9 hPa | - | - | - | - |
| 1777960370 | 17.22° C | 49% | 1006.8 hPa | - | - | - | - |
| 1777959786 | 17.78° C | 49% | 1006.9 hPa | - | - | - | - |
| 1777959202 | 17.78° C | 48% | 1006.8 hPa | - | - | - | - |
| 1777958620 | 17.78° C | 48% | 1006.7 hPa | - | - | - | - |
| 1777958037 | 17.78° C | 48% | 1006.7 hPa | - | - | - | - |
| 1777957454 | 17.78° C | 48% | 1006.7 hPa | - | - | - | - |
| 1777956870 | 17.78° C | 48% | 1006.7 hPa | - | - | - | - |
| 1777956287 | 17.78° C | 47% | 1006.7 hPa | - | - | - | - |
| 1777955705 | 17.78° C | 48% | 1006.5 hPa | - | - | - | - |
| 1777955121 | 19.44° C | 47% | 1006.4 hPa | - | - | - | - |
| 1777954537 | 18.33° C | 49% | 1006.3 hPa | - | - | - | - |
| 1777953953 | 17.78° C | 50% | 1006.1 hPa | - | - | - | - |
* Rain since midnight (hover to see other rain measurements)
** Current wind speed in m/s (hover to see current wind gust speed)